Regional Weather Roundup
Issued by NWS

Home | Current Version | Previous Version | Graphics & Text | Print | Product List | Glossary On
Versions: 1 2 3 4 5 6 7 8 9 10 11 12 13 14 15 16 17 18 19 20 21 22 23 24 25 26 27 28 29 30 31 32 33 34 35 36 37 38 39 40 41 42 43 44 45 46 47 48 49 50
000
ASUS43 KDMX 291208
RWRIA

WEATHER ROUNDUP FOR IOWA
NATIONAL WEATHER SERVICE DES MOINES IA
700 AM CDT FRI APR 29 2016

NOTE: "FAIR" INDICATES FEW OR NO CLOUDS BELOW 12,000 FEET WITH NO
SIGNIFICANT WEATHER AND/OR OBSTRUCTIONS TO VISIBILITY.

* - THESE STATIONS ARE NOT NWS STATIONS...THUS NOT UNDER NWS
QUALITY CONTROL.  THEY ALSO DO NOT REPORT WEATHER SUCH
AS PRECIPITATION OR FOG.

IAZ001>003-012>014-020>022-031>034-043>046-291300-
   NORTHWEST IOWA

CITY           SKY/WX    TMP DP  RH WIND       PRES   REMARKS
CARROLL *      CLOUDY    43  41  93 N12       30.10F
CHEROKEE *     CLOUDY    40  40 100 N3        30.14R FOG
DENISON *      CLOUDY    43  41  93 N9        30.08F
LE MARS *      CLOUDY    41  39  93 CALM      30.15R FOG
ORANGE CITY *  CLOUDY    39  37  93 CALM      30.14R
SHELDON *      CLOUDY    39  39 100 N9        30.12S FOG     WCI  33
SIOUX CITY     CLOUDY    43  38  82 NE6       30.14S
6HR MIN TEMP:  43; 6HR MAX TEMP:  44;

SPENCER        CLOUDY    40  36  86 NE9       30.13F WCI  34
6HR MIN TEMP:  40; 6HR MAX TEMP:  40;

STORM LAKE *   CLOUDY    41  39  93 N5        30.13R
$$

IAZ055>058-069>071-079>083-090>094-291300-
   SOUTHWEST IOWA

CITY           SKY/WX    TMP DP  RH WIND       PRES   REMARKS
ATLANTIC *     CLOUDY    43  41  93 N7        30.08F
AUDUBON *      CLOUDY    43  39  87 N9        30.09F
CLARINDA *       N/A    N/A N/A N/A MISG        N/A
COUNCIL BLFS * CLOUDY    43  43 100 N9        30.08F
CRESTON *      CLOUDY    45  43  93 N14       30.06S
HARLAN  *      CLOUDY    43  41  93 N10       30.12F
LAMONI         CLOUDY    45  43  93 N9        30.03S
6HR MIN TEMP:  45; 6HR MAX TEMP:  47;

RED OAK *      CLOUDY    45  43  93 N12       30.07F
SHENANDOAH *   CLOUDY    45  45 100 N12       30.08R
$$

IAZ047>049-059>061-072>074-084-291300-
   CENTRAL IOWA

CITY           SKY/WX    TMP DP  RH WIND       PRES   REMARKS
AMES           CLOUDY    44  42  93 N8        30.09F FOG
6HR MIN TEMP:  44; 6HR MAX TEMP:  46;

ANKENY *       CLOUDY    45  45 100 N9        30.08F
BOONE *        CLOUDY    43  43 100 N9        30.08F FOG
CHARITON *     CLOUDY    46  45  93 N13       30.04F
DES MOINES     CLOUDY    46  41  82 N8        30.09F
6HR MIN TEMP:  46; 6HR MAX TEMP:  48; 6HR PCP: TRACE;

GRINNELL*      CLOUDY    45  43  93 N10       30.07F FOG
KNOXVILLE *    CLOUDY    46  45  93 N9        30.05F
MARSHALLTOWN   CLOUDY    43  42  97 N12       30.08F FOG
6HR MIN TEMP:  43; 6HR MAX TEMP:  45;

NEWTON *       CLOUDY    45  45 100 N10       30.07F
PELLA *        CLOUDY    46  45  95 N5        30.09S FOG
$$

IAZ004>006-015-016-023>025-035-036-291300-
   NORTH CENTRAL IOWA

CITY           SKY/WX    TMP DP  RH WIND       PRES   REMARKS
ALGONA *       CLOUDY    41  39  93 NE12      30.13F FOG
CLARION *      CLOUDY    43  41  93 N6        30.13S FOG
ESTHERVILLE    CLOUDY    38  37  97 NE9       30.14R WCI  31
6HR MIN TEMP:  38; 6HR MAX TEMP:  39;

FORT DODGE *   CLOUDY    41  37  87 N6        30.13S
MASON CITY     CLOUDY    41  38  89 N9        30.14F
6HR MIN TEMP:  40; 6HR MAX TEMP:  41;

FOREST CITY *  CLOUDY    39  39 100 NE6       30.13F WCI  35
WEBSTER CITY * CLOUDY    43  43 100 N8        30.10F
IOWA FALLS *   CLOUDY    43  41  93 N7        30.12F
$$

IAZ007>011-017>019-026>030-037>042-050>054-066-291300-
   NORTHEAST IOWA

CITY           SKY/WX    TMP DP  RH WIND       PRES   REMARKS
CEDAR RAPIDS   CLOUDY    43  42  97 N9        30.08F
6HR MIN TEMP:  43; 6HR MAX TEMP:  45;

CHARLES CITY * MOCLDY    39  39 100 NE7       30.13S WCI  34
CLINTON *      CLOUDY    43  41  93 N6        30.11S
DECORAH *      CLOUDY    39  39 100 N7        30.13R WCI  34
DUBUQUE        CLOUDY    40  39  97 N6        30.11R
6HR MIN TEMP:  40; 6HR MAX TEMP:  40;

MONTICELLO *   CLOUDY    43  39  87 N6        30.12S
OELWEIN *      CLOUDY    41  41 100 N8        30.13R
WATERLOO       CLOUDY    42  39  89 N7        30.13R
6HR MIN TEMP:  42; 6HR MAX TEMP:  43;

$$

IAZ064-065-067-068-078-291300-
   EAST CENTRAL IOWA

CITY           SKY/WX    TMP DP  RH WIND       PRES   REMARKS
DAVENPORT      CLOUDY    43  41  93 N9        30.09F FOG
6HR MIN TEMP:  43; 6HR MAX TEMP:  46; 6HR PCP:  0.01;

IOWA CITY      CLOUDY    45  41  86 N8G18     30.09F
6HR MIN TEMP:  44; 6HR MAX TEMP:  48;

MT. PLEASANT * CLOUDY    49  48  99 N9        30.07F FOG
MUSCATINE *    CLOUDY    46  43  87 N7G16     30.09S
QUAD CITIES    CLOUDY    46  41  82 N8        30.07F HAZE
6HR MIN TEMP:  45; 6HR MAX TEMP:  51;

$$

IAZ062-063-075>077-085>089-095>099-291300-
   SOUTHEAST IOWA

CITY           SKY/WX    TMP DP  RH WIND       PRES   REMARKS
BURLINGTON     CLOUDY    47  46  97 N13       30.06S FOG
6HR MIN TEMP:  47; 6HR MAX TEMP:  51;

FAIRFIELD *    CLOUDY    46  45  93 N13       30.07F FOG
FORT MADISON * CLOUDY    48  46  93 N8        30.07F FOG
KEOKUK *       CLOUDY    50  46  87 N8G16     30.03F
OSKALOOSA *    CLOUDY    46  44  93 NE13      30.07F FOG
OTTUMWA        CLOUDY    46  44  93 NE8       30.06F FOG
6HR MIN TEMP:  46; 6HR MAX TEMP:  50; 6HR PCP: TRACE;

WASHINGTON *   CLOUDY    45  45 100 N9        30.09F FOG
$$

ABBREVIATIONS USED IN REMARKS
   TC - TEMPERATURES IN CELSIUS
  WCI - WIND CHILL INDEX
   HX - HEAT INDEX
  VSB - VISIBILITY
$$





USA.gov is the U.S. government's official web portal to all federal, state and local government web resources and services.